Location: Moscow
(55.7500°N, 37.5830°E)
Time: 17:11:31
(UTC+03:00)

A-11 Canister half - Pass Details

Date: 08 December 2021
Orbit: 1516 x 1684 km, 47.2° (Epoch: 19 January)

Event Time Altitude Azimuth Distance (km) Brightness Sun altitude
Rises 06:45:48 0° 222° (SW) 4,742 11.3 -15.3°
Reaches altitude 10° 06:49:07 10° 214° (SW) 3,784 10.9 -14.9°
Maximum altitude 06:57:40 38° 151° (SSE) 2,309 10.4 -13.8°
Drops below altitude 10° 07:06:29 10° 89° (E) 3,908 12.3 -12.6°
Sets 07:09:57 0° 82° (E) 4,914 12.8 -12.2°
